Location: Unspecified
(0.0000°N, 0.0000°E)
Time: 22:40:04
(UTC+00:00)

Explorer 27 - Pass Details

Date: 18 May 2026
Orbit: 932 x 1295 km, 41.2° (Epoch: 7 June)

Event Time Altitude Azimuth Distance (km) Brightness Sun altitude
Rises 19:04:14 0° 250° (WSW) 4,261 12.2 -15.9°
Reaches altitude 10° 19:07:40 10° 261° (W) 3,272 11.7 -16.7°
Maximum altitude 19:14:21 28° 317° (NW) 2,139 10.4 -18.3°
Drops below altitude 10° 19:20:45 10° 13° (NNE) 3,103 10.7 -19.8°
Sets 19:23:56 0° 25° (NNE) 4,006 11.2 -20.5°
